This demonstration page uses our WeatherBlox Daily Observations layout. Learn more.

Left ArrowRight Arrow

Hourly Observations for October 17, 2018

Temp ( °F °C ) Dew Point ( °F °C ) Humidity (%) Winds ( mph kmh ) Pressure ( in mb ) Visibility ( mi km ) Precip ( " mm )
12:54 am 00:54 Clear 42 5.6 38 3.3 85 85 NNW 6 9 30.32 1027 10 16.0934 0 0
1:54 am 01:54 Clear 40 4.4 37 2.8 89 89 Calm 30.34 1027 10 16.0934 0 0
2:54 am 02:54 Clear 38 3.3 34 1.1 86 86 Calm 30.35 1028 10 16.0934 0 0
3:54 am 03:54 Clear 37 2.8 34 1.1 89 89 Calm 30.36 1028 10 16.0934 0 0
4:54 am 04:54 Clear 34 1.1 32 0 92 92 N 6 9 30.39 1029 10 16.0934 0 0
5:54 am 05:54 Clear 35 1.7 33 0.6 93 93 Calm 30.4 1030 10 16.0934 0 0
6:54 am 06:54 Clear 36 2.2 33 0.6 89 89 Calm 30.42 1030 10 16.0934 0 0
7:54 am 07:54 Sunny 36 2.2 34 1.1 93 93 Calm 30.44 1031 10 16.0934 0 0
8:54 am 08:54 Sunny 41 5 38 3.3 89 89 Calm 30.47 1032 10 16.0934 0 0
9:54 am 09:54 Sunny 49 9.4 41 5 74 74 Calm 30.49 1032 10 16.0934 0 0
10:54 am 10:54 Sunny 57 13.9 43 6.1 60 60 Calm 30.48 1032 10 16.0934 0 0
11:54 am 11:54 Sunny 64 17.8 39 3.9 40 40 NW 7 11 30.48 1032 10 16.0934 0 0
12:54 pm 12:54 Sunny 65 18.3 39 3.9 39 39 N 8 13 30.48 1032 10 16.0934 0 0
1:54 pm 13:54 Sunny 66 18.9 40 4.4 39 39 N 5 7 30.45 1031 10 16.0934 0 0
2:54 pm 14:54 Sunny 68 20 39 3.9 35 35 undefined N/A 30.44 1031 10 16.0934 0 0
3:54 pm 15:54 Sunny 68 20 38 3.3 33 33 Calm 30.43 1030 10 16.0934 0 0
4:54 pm 16:54 Sunny 67 19.4 39 3.9 36 36 Calm 30.43 1031 10 16.0934 0 0
5:54 pm 17:54 Sunny 66 18.9 41 5 40 40 Calm 30.43 1031 10 16.0934 0 0
6:54 pm 18:54 Clear 60 15.6 41 5 50 50 SE 5 7 30.44 1031 10 16.0934 0 0
7:54 pm 19:54 Clear 55 12.8 42 5.6 62 62 SSE 5 7 30.45 1031 10 16.0934 0 0
8:54 pm 20:54 Clear 51 10.6 42 5.6 71 71 SSE 5 7 30.47 1032 10 16.0934 0 0
9:54 pm 21:54 Clear 52 11.1 40 4.4 64 64 S 5 7 30.46 1032 10 16.0934 0 0
10:54 pm 22:54 Clear 51 10.6 40 4.4 66 66 SSE 3 6 30.46 1032 10 16.0934 0 0
11:54 pm 23:54 Clear 49 9.4 40 4.4 71 71 SE 3 6 30.45 1031 10 16.0934 0 0

Powered by AerisWeather